Date String (YYYY-MM-DD hh:mm:ss) UTC,Instrument flags,Ambient pressure (hPa),Sample flow (lpm),Bypass flow (lpm),Sample temperature (°C),Ambient temperature (°C),ASC tube jacket temperature (°C),LED temperature (°C),Box temperature (°C),Sample RH (%),Span deviation,Mass concentration (μg/m³),Mass concentration (μg/m³),Mass concentration (μg/m³)
DateTimeUTC,F1_M11,P_M11,Q1_M11,Q2_M11,T1_M11,T2_M11,T3_M11,T4_M11,T5_M11,U1_M11,ZSPAN_M11,X0_M11,X2_M11,X1_M11
2023-02-20 23:00:00,,0817.4,5.00,0.00,22.2,20.7,00.0,31.1,23.9,13.4,0000.0,0012.93,0002.36,0000.54
2023-02-20 23:01:00,,0817.7,5.00,0.00,22.1,20.7,00.0,31.0,23.9,13.2,0000.0,0013.40,0002.50,0000.56
2023-02-20 23:02:00,,0817.7,5.00,0.00,22.1,20.7,00.0,31.1,23.9,13.0,0000.0,0013.67,0002.56,0000.57
2023-02-20 23:03:00,,0817.5,4.99,0.00,22.1,20.7,00.0,31.0,23.9,13.1,0000.0,0013.66,0002.56,0000.58
2023-02-20 23:04:00,,0817.4,4.97,0.00,22.1,20.6,00.0,31.0,23.9,13.3,0000.0,0013.49,0002.54,0000.58
2023-02-20 23:05:00,,0817.7,4.98,0.00,22.1,20.6,00.0,31.0,23.9,13.2,0000.0,0008.21,0001.69,0000.52
2023-02-20 23:06:00,,0817.5,5.01,0.00,22.1,20.6,00.0,31.0,23.9,13.1,0000.0,0003.98,0001.12,0000.48
2023-02-20 23:07:00,,0817.5,5.00,0.00,22.1,20.6,00.0,31.0,23.9,13.3,0000.0,0003.42,0001.10,0000.47
2023-02-20 23:08:00,,0817.5,5.00,0.00,22.1,20.6,00.0,31.0,23.9,13.0,0000.0,0004.50,0001.18,0000.48
2023-02-20 23:09:00,,0817.6,4.99,0.00,22.1,20.6,00.0,31.0,23.9,13.1,0000.0,0004.53,0001.18,0000.49
2023-02-20 23:10:00,,0817.6,5.01,0.00,22.1,20.6,00.0,31.0,23.9,13.3,0000.0,0004.34,0001.12,0000.49
2023-02-20 23:11:00,,0817.6,5.00,0.00,22.1,20.6,00.0,31.0,23.9,13.2,0000.0,0003.96,0001.04,0000.48
2023-02-20 23:12:00,,0817.6,4.97,0.00,22.1,20.6,00.0,31.0,23.8,13.2,0000.0,0003.26,0000.92,0000.46
2023-02-20 23:13:00,,0817.7,5.00,0.00,22.1,20.6,00.0,31.0,23.9,13.4,0000.0,0002.89,0000.92,0000.45
2023-02-20 23:14:00,,0817.6,5.00,0.00,22.1,20.6,00.0,31.0,23.9,13.3,0000.0,0002.91,0000.90,0000.45
2023-02-20 23:15:00,,0817.6,5.00,0.00,22.1,20.6,00.0,31.0,23.8,13.2,0000.0,0002.79,0000.89,0000.45
2023-02-20 23:16:00,,0817.6,5.00,0.00,22.1,20.6,00.0,31.0,23.9,13.3,0000.0,0003.10,0000.94,0000.45
2023-02-20 23:17:00,,0817.5,5.00,0.00,22.1,20.6,00.0,31.0,23.8,13.4,0000.0,0003.85,0000.92,0000.45
2023-02-20 23:18:00,,0817.5,5.00,0.00,22.1,20.6,00.0,31.0,23.9,13.4,0000.0,0003.69,0000.88,0000.45
2023-02-20 23:19:00,,0817.5,4.98,0.00,22.1,20.7,00.0,31.0,23.9,13.5,0000.0,0002.55,0000.78,0000.45
2023-02-20 23:20:00,,0817.3,5.01,0.00,22.1,20.7,00.0,31.0,23.9,13.5,0000.0,0002.53,0000.79,0000.45
2023-02-20 23:21:00,,0817.1,4.99,0.00,22.1,20.7,00.0,31.0,23.9,13.2,0000.0,0002.52,0000.78,0000.45
2023-02-20 23:22:00,,0817.5,4.99,0.00,22.1,20.7,00.0,31.0,23.8,13.1,0000.0,0002.76,0000.83,0000.45
2023-02-20 23:23:00,,0817.3,5.00,0.00,22.1,20.7,00.0,31.0,23.9,13.5,0000.0,0002.80,0000.84,0000.45
2023-02-20 23:24:00,,0817.5,5.00,0.00,22.1,20.6,00.0,31.0,23.9,13.4,0000.0,0002.77,0000.80,0000.46
2023-02-20 23:25:00,,0817.5,5.00,0.00,22.1,20.6,00.0,31.0,23.8,13.4,0000.0,0002.78,0000.79,0000.47
2023-02-20 23:26:00,,0817.5,5.00,0.00,22.1,20.6,00.0,31.0,23.8,13.5,0000.0,0003.44,0000.76,0000.48
2023-02-20 23:27:00,,0817.5,5.01,0.00,22.1,20.6,00.0,31.0,23.9,13.5,0000.0,0004.33,0000.73,0000.48
2023-02-20 23:28:00,,0817.6,5.01,0.00,22.1,20.6,00.0,31.0,23.9,13.2,0000.0,0003.61,0000.73,0000.48
2023-02-20 23:29:00,,0817.6,5.02,0.00,22.1,20.6,00.0,31.0,23.9,13.5,0000.0,0003.52,0000.73,0000.49
2023-02-20 23:30:00,,0817.5,4.99,0.00,22.1,20.6,00.0,31.0,23.9,13.6,0000.0,0003.59,0000.76,0000.49
2023-02-20 23:31:00,,0817.5,4.99,0.00,22.1,20.7,00.0,31.0,23.9,13.4,0000.0,0003.64,0000.79,0000.50
2023-02-20 23:32:00,,0817.5,5.01,0.00,22.1,20.7,00.0,31.0,23.9,13.3,0000.0,0005.15,0000.82,0000.51
2023-02-20 23:33:00,,0817.5,5.00,0.00,22.1,20.6,00.0,31.0,23.9,13.4,0000.0,0005.73,0000.84,0000.52
2023-02-20 23:34:00,,0817.4,5.00,0.00,22.1,20.7,00.0,31.0,23.9,13.6,0000.0,0005.53,0000.81,0000.52
2023-02-20 23:35:00,,0817.6,5.01,0.00,22.1,20.7,00.0,31.0,23.9,13.4,0000.0,0005.53,0000.84,0000.53
2023-02-20 23:36:00,,0817.7,5.00,0.00,22.1,20.7,00.0,31.0,23.9,13.1,0000.0,0005.41,0000.86,0000.52
2023-02-20 23:37:00,,0817.6,5.00,0.00,22.1,20.7,00.0,31.0,23.9,13.1,0000.0,0005.31,0000.87,0000.52
2023-02-20 23:38:00,,0817.4,5.00,0.00,22.1,20.7,00.0,31.0,23.9,13.2,0000.0,0003.65,0000.86,0000.51
2023-02-20 23:39:00,,0817.6,4.99,0.00,22.1,20.7,00.0,31.0,23.9,13.2,0000.0,0003.50,0000.83,0000.50
2023-02-20 23:40:00,,0817.7,5.00,0.00,22.1,20.6,00.0,31.0,23.9,13.2,0000.0,0003.51,0000.83,0000.50
2023-02-20 23:41:00,,0817.7,5.00,0.00,22.1,20.7,00.0,31.0,23.9,13.3,0000.0,0003.58,0000.82,0000.51
2023-02-20 23:42:00,,0817.6,5.00,0.00,22.1,20.7,00.0,31.0,23.9,13.4,0000.0,0003.63,0000.82,0000.50
2023-02-20 23:43:00,,0817.5,5.00,0.00,22.1,20.7,00.0,31.0,23.9,13.4,0000.0,0002.62,0000.80,0000.49
2023-02-20 23:44:00,,0817.5,5.01,0.00,22.1,20.7,00.0,31.0,23.9,13.1,0000.0,0001.78,0000.77,0000.48
2023-02-20 23:45:00,,0817.4,5.01,0.00,22.1,20.7,00.0,31.0,23.9,12.9,0000.0,0001.80,0000.78,0000.47
2023-02-20 23:46:00,,0817.6,5.01,0.00,22.1,20.6,00.0,31.0,23.9,12.9,0000.0,0001.69,0000.73,0000.46
2023-02-20 23:47:00,,0817.5,5.00,0.00,22.1,20.6,00.0,31.0,23.9,12.9,0000.0,0001.62,0000.69,0000.45
2023-02-20 23:48:00,,0817.5,5.01,0.00,22.1,20.6,00.0,31.0,23.9,13.0,0000.0,0001.68,0000.71,0000.45
2023-02-20 23:49:00,,0817.6,5.00,0.00,22.1,20.6,00.0,31.0,23.9,12.9,0000.0,0001.68,0000.70,0000.44
2023-02-20 23:50:00,,0817.6,4.99,0.00,22.1,20.6,00.0,31.0,23.9,12.9,0000.0,0001.66,0000.70,0000.44
2023-02-20 23:51:00,,0817.6,4.99,0.00,22.1,20.7,00.0,31.0,23.9,12.9,0000.0,0001.56,0000.67,0000.43
2023-02-20 23:52:00,,0817.6,4.99,0.00,22.1,20.7,00.0,31.0,23.9,12.9,0000.0,0001.48,0000.66,0000.41
2023-02-20 23:53:00,,0817.6,4.99,0.00,22.1,20.7,00.0,31.0,23.9,13.0,0000.0,0001.57,0000.67,0000.40
2023-02-20 23:54:00,,0817.5,5.00,0.00,22.1,20.7,00.0,31.0,23.9,13.0,0000.0,0001.43,0000.68,0000.41
2023-02-20 23:55:00,,0817.5,5.02,0.00,22.1,20.6,00.0,31.0,23.8,13.0,0000.0,0001.38,0000.68,0000.40
2023-02-20 23:56:00,,0817.6,5.01,0.00,22.1,20.6,00.0,31.0,23.8,12.9,0000.0,0001.42,0000.69,0000.40
2023-02-20 23:57:00,,0817.6,5.01,0.00,22.0,20.6,00.0,31.0,23.8,13.0,0000.0,0001.45,0000.70,0000.40
2023-02-20 23:58:00,,0817.6,4.99,0.00,22.0,20.6,00.0,31.0,23.8,13.0,0000.0,0001.47,0000.71,0000.40
2023-02-20 23:59:00,,0817.6,4.99,0.00,22.0,20.6,00.0,31.0,23.9,12.8,0000.0,0001.43,0000.68,0000.39
